Home > Weather > Freital > Past weeks

Flag for Germany Weather for the Past 2 Weeks in Freital, Saxony, Germany

Now
37 °F

Clear.


Feels Like: 37 °F
Forecast: 32 / 56 °F
Wind: 2 mph from South

Location: Dresden-Klotzsche

Current Time: Apr 28, 2016 at 11:58:56 PM

Latest Report: Apr 28, 2016 at 11:20 PM


Visibility: 10 mi

Pressure: 30.04 "Hg

Humidity: 70%

Dew Point: 28 °F

Location of FreitalLocation

Historic Weather in Freital — Graph

°F

Freital Temperature Yesterday

Maximum temperature yesterday: 45 °F (at 12:20 PM)
Minimum temperature yesterday: 36 °F (at 4:20 AM)
Average temperature yesterday: 41 °F

High & Low Weather Summary for the Past Weeks

 TemperatureHumidityPressure
High59 °F (Apr 21, 2:50 PM)100% (Apr 14, 1:20 AM)30.39 "Hg (Apr 14, 1:20 AM)
Low32 °F (Apr 24, 6:20 AM)37% (Apr 25, 3:20 PM)29.47 "Hg (Apr 26, 7:50 AM)
Average44 °F73%29.89 "Hg
* Reported Apr 13 10:20 PM — Apr 28 10:20 PM, Freital, Weather by CustomWeather, © 2016

Note: Actual official high and low records may vary slightly from our data, if they occured in-between our weather recording intervals... More about our weather records

Advertising

Freital Weather History for the Previous 24 Hours

Scroll right to see more
 ConditionsComfort  
Time TempWeatherWind HumidityBarometerVisibility
10:20 PM
Thu, Apr 28
37 °FPassing clouds.3 mph70%30.01 "HgN/A
9:50 PM41 °FPassing clouds.6 mph66%30.01 "HgN/A
9:20 PM41 °FPassing clouds.3 mph66%30.01 "HgN/A
8:50 PM43 °FPassing clouds.5 mph61%30.01 "HgN/A
8:20 PM43 °FPassing clouds.5 mph57%29.98 "HgN/A
7:50 PM45 °FPassing clouds.6 mph57%29.98 "HgN/A
7:20 PM46 °FPassing clouds.6 mph53%29.98 "HgN/A
6:50 PM46 °FPassing clouds.7 mph53%29.98 "HgN/A
6:20 PM46 °FPassing clouds.6 mph57%29.95 "HgN/A
5:50 PM46 °FScattered clouds.10 mph57%29.98 "HgN/A
5:20 PM46 °FScattered clouds.8 mph57%29.95 "HgN/A
4:50 PM43 °FScattered clouds.16 mph66%29.98 "HgN/A
4:20 PM48 °FPassing clouds.14 mph46%29.95 "HgN/A
3:50 PM46 °FPassing clouds.15 mph53%29.95 "HgN/A
3:20 PM46 °FScattered clouds.14 mph53%29.95 "HgN/A
2:20 PM48 °FScattered clouds.13 mph46%29.92 "HgN/A
1:50 PM46 °FPartly sunny.8 mph53%29.92 "HgN/A
1:20 PM45 °FScattered clouds.14 mph57%29.92 "HgN/A
12:50 PM46 °FScattered showers. Scattered clouds.12 mph62%29.95 "HgN/A
12:20 PM45 °FScattered clouds.10 mph57%29.92 "HgN/A
11:50 AM46 °FScattered clouds.10 mph53%29.92 "HgN/A
11:20 AM45 °FScattered showers. Broken clouds.9 mph61%29.92 "HgN/A
10:20 AM45 °FScattered clouds.13 mph57%29.92 "HgN/A
9:50 AM43 °FBroken clouds.13 mph61%29.92 "HgN/A
9:20 AM43 °FBroken clouds.13 mph61%29.92 "HgN/A
7:50 AM41 °FPartly sunny.13 mph66%29.89 "HgN/A
7:20 AM39 °FScattered clouds.12 mph70%29.89 "HgN/A
6:50 AM37 °FScattered clouds.10 mph75%29.89 "HgN/A
5:50 AM37 °FPassing clouds.9 mph75%29.86 "HgN/A
5:20 AM39 °FPassing clouds.12 mph70%29.86 "HgN/A
4:50 AM39 °FPassing clouds.9 mph75%29.86 "HgN/A
4:20 AM39 °FPassing clouds.10 mph75%29.86 "HgN/A
3:50 AM39 °FPassing clouds.12 mph75%29.86 "HgN/A
3:20 AM39 °FPassing clouds.8 mph75%29.83 "HgN/A
2:50 AM39 °FPassing clouds.7 mph75%29.83 "HgN/A
2:20 AM39 °FPassing clouds.7 mph75%29.83 "HgN/A
1:20 AM39 °FPassing clouds.9 mph75%29.83 "HgN/A
12:20 AM39 °FPassing clouds.9 mph75%29.80 "HgN/A
11:50 PM
Wed, Apr 27
39 °FPassing clouds.10 mph75%29.80 "HgN/A
11:20 PM39 °FPassing clouds.9 mph75%29.80 "HgN/A
Weather by CustomWeather, © 2016

See weather overviewHow to use our weather pages